Regional Weather Roundup
Issued by NWS

Home | Current Version | Previous Version | Graphics & Text | Print | Product List | Glossary On
Versions: 1 2 3 4 5 6 7 8 9 10 11 12 13 14 15 16 17 18 19 20 21 22 23 24 25 26 27 28 29 30 31 32 33 34 35 36 37 38 39 40 41 42 43 44 45 46 47 48 49 50
000
ASUS43 KLOT 032112
RWRIL

ILLINOIS REGIONAL WEATHER ROUNDUP
NATIONAL WEATHER SERVICE CHICAGO/ROMEOVILLE IL
400 PM CDT SUN MAY 03 2015

NOTE: "FAIR" INDICATES FEW OR NO CLOUDS BELOW 12,000 FEET WITH NO
SIGNIFICANT WEATHER AND/OR OBSTRUCTIONS TO VISIBILITY.

* THESE STATIONS ARE NOT UNDER NWS QUALITY CONTROL. THEY ALSO MAY NOT
  REPORT WEATHER SUCH AS PRECIPITATION OR FOG.

ILZ001-002-007-009-015-016-024-032200-
NORTHWEST ILLINOIS

CITY           SKY/WX    TMP DP  RH WIND       PRES   REMARKS
MOLINE         MOSUNNY   82  55  39 SW18G24   29.84F HX  81
STERLING*      CLOUDY    64  59  82 NE9G24    29.89F
SAVANNA*       CLOUDY    68  60  77 E14       29.88F
$$

ILZ003-004-008-010-011-017-018-032200-
NORTH CENTRAL ILLINOIS

CITY           SKY/WX    TMP DP  RH WIND       PRES   REMARKS
ROCKFORD       RAIN      62  58  86 NW9       29.96R
FREEPORT*      TSTM      58  57  97 SE8       29.94F
ROCHELLE*      RAIN      64  59  85 NW14G21   29.93R
DE KALB*       CLOUDY    69  56  62 CALM      29.92R
PERU*          CLOUDY    80  47  31 SW21G28   29.89S
$$

ILZ005-006-012>014-019>023-032200-
NORTHEAST ILLINOIS

CITY           SKY/WX    TMP DP  RH WIND       PRES   REMARKS
CHICAGO-OHARE  CLOUDY    76  47  35 S8        29.90F
CHICAGO-MIDWAY CLOUDY    81  44  27 S9        29.90F HX  80
AURORA         CLOUDY    78  46  32 SW18G26   29.90S
LANSING*       CLOUDY    80  42  26 S14       29.92F
JOLIET*        CLOUDY    83  50  31 S16G22    29.91S HX  81
WAUKEGAN       CLOUDY    74  51  44 SW9       29.90F
DUPAGE AIRPORT CLOUDY    77  49  37 S14G22    29.89F
KANKAKEE*      PTSUNNY   79  47  31 S15G24    29.93F
WHEELING       CLOUDY    75  48  38 S8        29.92F
MORRIS*        PTSUNNY   79  47  32 S18G25    29.89F
ROMEOVILLE*    CLOUDY    81  44  27 SW21      29.90F HX  80
NORTHERLY ISL    N/A     78  41  26 S7          N/A
$$

LMZ740>746-032200-
SOUTHERN LAKE MICHIGAN

STATION/POSITION SKY/WX   TEMP    WIND        PRES    VSBY  WAVE
                          AIR SEA DIR/SP/G                  HT/PER
                          (F)     (DEG/KT/KT) (MB)    (MI)  (FT/S)
HARRISON CRIB              74     190/ 15/ 18   N/A
BURNHAM HARBOR             78     220/  4/ 12   N/A
CALUMET HARBOR             78     180/  9/ 15   N/A
BURNS HARBOR               76     220/ 15/ 20 1014.6F
MICHIGAN CITY              77     200/ 12/ 19   N/A
MICHIGAN CITY 6N           63 51  220/  6/  8   N/A           1/ 3
ST. JOSEPH                 63 51  110/  2/  2   N/A           1
$$

ILZ025>027-034>036-040-047-049-050-058-095>099-032200-
WEST-CENTRAL ILLINOIS

CITY           SKY/WX    TMP DP  RH WIND       PRES   REMARKS
QUINCY         PTSUNNY   83  55  38 SW16G26   29.89F HX  82
GALESBURG*     MOSUNNY   82  56  41 SW20      29.87F HX  81
MACOMB*        MOSUNNY   83  52  33 S17G26    29.90S HX  82
JACKSONVILLE*  SUNNY     85  50  29 S14G25    29.91F HX  83
PITTSFIELD*    MOSUNNY   84  52  32 S15G24    29.91F HX  82
$$

ILZ028>032-037-038-041>044-048-051>054-059>061-032200-
CENTRAL ILLINOIS

CITY           SKY/WX    TMP DP  RH WIND       PRES   REMARKS
PONTIAC        PTSUNNY   84  48  28 S17       29.91F HX  82
BLOOMINGTON    MOSUNNY   81  50  33 SW20      29.93F HX  80
DECATUR        MOSUNNY   81  48  31 S20G28    29.95F HX  80
PEORIA         PTSUNNY   85  51  31 SW18G25   29.88F HX  83
LACON*         CLOUDY    81  49  32 SW14G20   29.88F HX  80
LINCOLN*       MOSUNNY   84  46  26 S9G22     29.89F HX  82
SPRINGFIELD    MOSUNNY   84  50  30 SW18G25   29.92F HX  82
TAYLORVILLE    SUNNY     82  46  28 S15G22    29.95F HX  81
$$

ILZ033-039-045-046-055>057-062-063-032200-
EAST-CENTRAL ILLINOIS

CITY           SKY/WX    TMP DP  RH WIND       PRES   REMARKS
CHAMPAIGN      MOSUNNY   82  40  22 S21       29.96F HX  80
DANVILLE*      MOSUNNY   78  45  30 S16       29.95F
RANTOUL*       PTSUNNY   82  42  24 S18G26    29.95F HX  80
MATTOON        MOSUNNY   78  43  28 S14G23    29.98F
PARIS*         MOSUNNY   80  44  27 S16G24    30.00F
$$

ILZ079-100>102-032200-
SOUTHWEST ILLINOIS

CITY           SKY/WX    TMP DP  RH WIND       PRES   REMARKS
ALTON            N/A     82  39  21 S14       29.95F HX  80
BELLEVILLE     SUNNY     81  52  36 S8        29.96F HX  80
CAHOKIA*       SUNNY     83  49  30 S13G20    29.95F HX  81
SPARTA*        SUNNY     77  51  40 S13G21    30.00F
$$

ILZ064>066-069>071-074>076-080>082-084>086-088>090-092>094-032200-
SOUTH-CENTRAL ILLINOIS

CITY           SKY/WX    TMP DP  RH WIND       PRES   REMARKS
CARBONDALE     SUNNY     80  48  32 S14G24    30.01F
CAIRO*         MOSUNNY   80  44  28 S13G18    30.03F
EFFINGHAM*     SUNNY     80  38  22 S12G18    30.01S
MARION         MOSUNNY   81  48  32 S14G20    30.02F HX  80
MT. VERNON     SUNNY    N/A N/A N/A S13G20    30.01F
CENTRALIA*     SUNNY     82  43  24 S16       30.00F HX  80
SALEM*         SUNNY     82  40  22 S15       30.00F HX  80
METROPOLIS*    MOSUNNY   80  48  32 SW12      30.04S
$$

ILZ067-068-072-073-078-083-087-091-032200-
SOUTHEAST ILLINOIS

CITY           SKY/WX    TMP DP  RH WIND       PRES   REMARKS
FLORA*         SUNNY     80  43  27 S16       30.01F
FAIRFIELD*     SUNNY     80  44  28 S10G20    30.01F
HARRISBURG*    SUNNY     80  43  27 S14G21    30.04F
ROBINSON*      SUNNY     81  44  26 SW12G20   30.02F HX  80
CARMI*         SUNNY     80  37  21 S15G21    30.02F
$$

ABBREVIATIONS USED IN REMARKS
   TC - TEMPERATURE IN CELSIUS
  WCI - WIND CHILL INDEX
   HX - HEAT INDEX
  VSB - VISIBILITY
$$



USA.gov is the U.S. government's official web portal to all federal, state and local government web resources and services.